H1 CPF 2 NER 2021 5 5 9 125 01 glonass131 H2 1301901 9131 39155 2021 5 5 0 0 0 2021 5 8 23 45 0 900 1 1 0 0 0 1 H9 10 0 59339 0.00000 0 9280094.481 11094656.210 21042362.815 10 0 59339 900.00000 0 9279835.435 13589756.215 19515752.470 10 0 59339 1800.00000 0 9453187.456 15868262.619 17610982.718 10 0 59339 2700.00000 0 9765276.843 17874977.020 15364671.112 10 0 59339 3600.00000 0 10172466.500 19563887.453 12820118.238 10 0 59339 4500.00000 0 10624335.029 20899905.061 10026493.223 10 0 59339 5400.00000 0 11065961.557 21860161.591 7037898.992 10 0 59339 6300.00000 0 11440420.997 22434811.484 3912333.648 10 0 59339 7200.00000 0 11691384.468 22627302.801 710567.240 10 0 59339 8100.00000 0 11765714.060 22454103.503 -2505044.520 10 0 59339 9000.00000 0 11615940.319 21943892.729 -5671785.965 10 0 59339 9900.00000 0 11202514.992 21136249.797 -8727821.351 10 0 59339 10800.00000 0 10495740.496 20079895.679 -11613422.948 10 0 59339 11700.00000 0 9477291.022 18830561.368 -14272161.152 10 0 59339 12600.00000 0 8141257.638 17448574.160 -16652030.901 10 0 59339 13500.00000 0 6494670.237 15996265.439 -18706490.124 10 0 59339 14400.00000 0 4557471.921 14535311.428 -20395387.856 10 0 59339 15300.00000 0 2361945.337 13124121.382 -21685762.194 10 0 59339 16200.00000 0 -48385.692 11815385.364 -22552491.430 10 0 59339 17100.00000 0 -2620333.196 10653886.573 -22978785.148 10 0 59339 18000.00000 0 -5293033.887 9674671.307 -22956505.724 10 0 59339 18900.00000 0 -8000265.528 8901653.714 -22486314.589 10 0 59339 19800.00000 0 -10672992.744 8346713.278 -21577641.479 10 0 59339 20700.00000 0 -13242034.655 8009321.476 -20248478.666 10 0 59339 21600.00000 0 -15640742.146 7876711.003 -18525005.868 10 0 59339 22500.00000 0 -17807572.693 7924577.695 -16441054.897 10 0 59339 23400.00000 0 -19688455.531 8118282.589 -14037426.324 10 0 59339 24300.00000 0 -21238849.478 8414500.444 -11361073.178 10 0 59339 25200.00000 0 -22425409.258 8763242.539 -8464169.136 10 0 59339 26100.00000 0 -23227192.969 9110166.179 -5403080.676 10 0 59339 27000.00000 0 -23636363.084 9399071.895 -2237264.245 10 0 59339 27900.00000 0 -23658354.710 9574482.111 971889.609 10 0 59339 28800.00000 0 -23311507.054 9584192.361 4162242.329 10 0 59339 29700.00000 0 -22626176.325 9381688.035 7272101.008 10 0 59339 30600.00000 0 -21643369.445 8928325.825 10241397.214 10 0 59339 31500.00000 0 -20412957.304 8195189.431 13012829.271 10 0 59339 32400.00000 0 -18991543.045 7164542.878 15532947.552 10 0 59339 33300.00000 0 -17440074.346 5830821.607 17753163.734 10 0 59339 34200.00000 0 -15821298.583 4201120.540 19630666.534 10 0 59339 35100.00000 0 -14197165.448 2295158.759 21129228.415 10 0 59339 36000.00000 0 -12626283.348 144721.475 22219889.668 10 0 59339 36900.00000 0 -11161533.377 -2207398.939 22881508.254 10 0 59339 37800.00000 0 -9847938.100 -4708921.158 23101165.976 10 0 59339 38700.00000 0 -8720872.127 -7299992.228 22874423.638 10 0 59339 39600.00000 0 -7804687.795 -9915427.621 22205420.091 10 0 59339 40500.00000 0 -7111812.726 -12487184.478 21106812.334 10 0 59339 41400.00000 0 -6642357.118 -14946968.612 19599556.257 10 0 59339 42300.00000 0 -6384248.182 -17228869.587 17712530.151 10 0 59339 43200.00000 0 -6313887.602 -19271916.316 15482005.753 10 0 59339 44100.00000 0 -6397306.365 -21022447.846 12950974.382 10 0 59339 45000.00000 0 -6591770.416 -22436200.468 10168338.701 10 0 59339 45900.00000 0 -6847771.330 -23480023.133 7187983.465 10 0 59339 46800.00000 0 -7111319.288 -24133147.754 4067741.551 10 0 59339 47700.00000 0 -7326442.000 -24387958.906 868274.365 10 0 59339 48600.00000 0 -7437783.533 -24250228.249 -2348111.889 10 0 59339 49500.00000 0 -7393191.646 -23738801.489 -5518690.573 10 0 59339 50400.00000 0 -7146181.899 -22884749.179 -8581554.390 10 0 59339 51300.00000 0 -6658171.267 -21730015.931 -11476844.648 10 0 59339 52200.00000 0 -5900383.371 -20325624.552 -14147943.808 10 0 59339 53100.00000 0 -4855341.327 -18729511.271 -16542605.551 10 0 59339 54000.00000 0 -3517881.905 -17004084.516 -18613998.029 10 0 59339 54900.00000 0 -1895645.409 -15213611.850 -20321637.822 10 0 59339 55800.00000 0 -9018.670 -13421547.235 -21632194.641 10 0 59339 56700.00000 0 2109467.743 -11687913.197 -22520149.971 10 0 59339 57600.00000 0 4416263.206 -10066849.736 -22968296.245 10 0 59339 58500.00000 0 6858394.111 -8604434.302 -22968066.834 10 0 59339 59400.00000 0 9375466.574 -7336864.815 -22519690.991 10 0 59339 60300.00000 0 11901989.765 -6289081.638 -21632171.782 10 0 59339 61200.00000 0 14369921.341 -5473885.055 -20323088.825 10 0 59339 62100.00000 0 16711327.441 -4891583.212 -18618231.327 10 0 59339 63000.00000 0 18861045.410 -4530182.471 -16551070.329 10 0 59339 63900.00000 0 20759237.654 -4366109.068 -14162082.299 10 0 59339 64800.00000 0 22353730.429 -4365428.299 -11497938.959 10 0 59339 65700.00000 0 23602040.959 -4485506.707 -8610580.687 10 0 59339 66600.00000 0 24473009.854 -4677044.382 -5556192.937 10 0 59339 67500.00000 0 24947972.921 -4886389.456 -2394106.586 10 0 59339 68400.00000 0 25021426.016 -5058035.623 814355.799 10 0 59339 69300.00000 0 24701157.894 -5137196.619 4007065.062 10 0 59339 70200.00000 0 24007848.205 -5072349.110 7122279.209 10 0 59339 71100.00000 0 22974149.751 -4817637.444 10099823.451 10 0 59339 72000.00000 0 21643295.132 -4335040.134 12882234.734 10 0 59339 72900.00000 0 20067287.006 -3596208.293 15415850.294 10 0 59339 73800.00000 0 18304747.694 -2583900.056 17651821.081 10 0 59339 74700.00000 0 16418517.231 -1292951.852 19547032.491 10 0 59339 75600.00000 0 14473098.587 269253.694 21064916.803 10 0 59339 76500.00000 0 12532054.484 2082843.120 22176143.608 10 0 59339 77400.00000 0 10655461.875 4116029.462 22859176.506 10 0 59339 78300.00000 0 8897527.594 6326189.449 23100686.545 10 0 59339 79200.00000 0 7304462.101 8661398.374 22895814.940 10 0 59339 80100.00000 0 5912698.066 11062361.898 22248279.862 10 0 59339 81000.00000 0 4747526.775 13464667.914 21170324.370 10 0 59339 81900.00000 0 3822208.720 15801268.260 19682504.933 10 0 59339 82800.00000 0 3137595.907 18005089.986 17813322.541 10 0 59339 83700.00000 0 2682282.598 20011669.893 15598701.067 10 0 59339 84600.00000 0 2433279.718 21761704.068 13081320.257 10 0 59339 85500.00000 0 2357186.403 23203406.445 10309813.764 10 0 59340 0.00000 0 2411811.126 24294577.378 7337845.513 10 0 59340 900.00000 0 2548175.436 25004293.934 4223080.140 10 0 59340 1800.00000 0 2712816.798 25314149.721 1026067.504 10 0 59340 2700.00000 0 2850292.718 25218988.065 -2190938.706 10 0 59340 3600.00000 0 2905779.820 24727096.904 -5365203.834 10 0 59340 4500.00000 0 2827655.689 23859853.459 -8434751.859 10 0 59340 5400.00000 0 2569951.741 22650832.421 -11339595.744 10 0 59340 6300.00000 0 2094570.107 21144413.947 -14022932.370 10 0 59340 7200.00000 0 1373167.377 19393949.874 -16432276.228 10 0 59340 8100.00000 0 388622.230 17459565.999 -18520507.466 10 0 59340 9000.00000 0 -863978.021 15405694.172 -20246811.690 10 0 59340 9900.00000 0 -2376875.928 13298439.857 -21577491.441 10 0 59340 10800.00000 0 -4129728.545 11202897.738 -22486632.348 10 0 59340 11700.00000 0 -6090235.480 9180529.959 -22956610.390 10 0 59340 12600.00000 0 -8215283.937 7286718.521 -22978430.331 10 0 59340 13500.00000 0 -10452562.122 5568595.229 -22551889.319 10 0 59340 14400.00000 0 -12742572.269 4063240.145 -21685563.472 10 0 59340 15300.00000 0 -15020957.591 2796323.121 -20396619.076 10 0 59340 16200.00000 0 -17221044.409 1781243.534 -18710453.769 10 0 59340 17100.00000 0 -19276492.016 1018801.650 -16660176.412 10 0 59340 18000.00000 0 -21123938.656 497412.292 -14285937.656 10 0 59340 18900.00000 0 -22705532.849 193848.271 -11634125.968 10 0 59340 19800.00000 0 -23971244.700 74478.776 -8756446.319 10 0 59340 20700.00000 0 -24880861.623 96947.315 -5708900.912 10 0 59340 21600.00000 0 -25405586.737 212215.659 -2550692.751 10 0 59340 22500.00000 0 -25529175.274 366885.502 656925.956 10 0 59340 23400.00000 0 -25248563.850 505698.597 3851837.890 10 0 59340 24300.00000 0 -24573968.799 574109.389 6972254.494 10 0 59340 25200.00000 0 -23528451.702 520821.922 9957897.188 10 0 59340 26100.00000 0 -22146972.091 300185.006 12751144.140 10 0 59340 27000.00000 0 -20474968.099 -125653.949 15298122.021 10 0 59340 27900.00000 0 -18566524.657 -784925.566 17549723.522 10 0 59340 28800.00000 0 -16482205.237 -1694820.900 19462533.028 10 0 59340 29700.00000 0 -14286636.245 -2860538.146 20999644.687 10 0 59340 30600.00000 0 -12045942.657 -4274833.356 22131359.133 10 0 59340 31500.00000 0 -9825139.264 -5918094.434 22835747.000 10 0 59340 32400.00000 0 -7685583.308 -7758936.713 23099069.594 10 0 59340 33300.00000 0 -5682591.800 -9755297.485 22916049.186 10 0 59340 34200.00000 0 -3863320.342 -11855986.657 22289983.551 10 0 59340 35100.00000 0 -2264989.928 -14002632.251 21232701.743 10 0 59340 36000.00000 0 -913534.468 -16131943.143 19764360.404 10 0 59340 36900.00000 0 177274.785 -18178197.923 17913082.501 10 0 59340 37800.00000 0 1006190.907 -20075858.885 15714442.987 10 0 59340 38700.00000 0 1584322.870 -21762203.988 13210808.666 10 0 59340 39600.00000 0 1934442.485 -23179867.745 10450542.502 10 0 59340 40500.00000 0 2089794.230 -24279184.701 7487085.498 10 0 59340 41400.00000 0 2092456.572 -25020236.192 4377932.111 10 0 59340 42300.00000 0 1991322.766 -25374512.555 1183518.108 10 0 59340 43200.00000 0 1839786.091 -25326118.379 -2033957.931 10 0 59340 44100.00000 0 1693227.816 -24872467.279 -5211756.075 10 0 59340 45000.00000 0 1606415.563 -24024434.091 -8287834.442 10 0 59340 45900.00000 0 1630924.335 -22805955.719 -11202080.616 10 0 59340 46800.00000 0 1812692.229 -21253095.598 -13897508.905 10 0 59340 47700.00000 0 2189817.452 -19412610.256 -16321397.602 10 0 59340 48600.00000 0 2790693.102 -17340078.205 -18426341.727 10 0 59340 49500.00000 0 3632561.634 -15097670.553 -20171198.593 10 0 59340 50400.00000 0 4720552.614 -12751658.438 -21521905.950 10 0 59340 51300.00000 0 6047246.237 -10369763.638 -22452155.582 10 0 59340 52200.00000 0 7592782.174 -8018465.290 -22943908.595 10 0 59340 53100.00000 0 9325509.423 -5760377.255 -22987742.284 10 0 59340 54000.00000 0 11203149.483 -3651806.988 -22583022.395 10 0 59340 54900.00000 0 13174423.025 -1740598.470 -21737898.358 10 0 59340 55800.00000 0 15181070.421 -64349.008 -20469122.999 10 0 59340 56700.00000 0 17160179.916 1350926.921 -18801701.849 10 0 59340 57600.00000 0 19046724.464 2491633.094 -16768380.642 10 0 59340 58500.00000 0 20776199.782 3356894.194 -14408982.844 10 0 59340 59400.00000 0 22287252.465 3958316.498 -11769611.854 10 0 59340 60300.00000 0 23524188.065 4319220.359 -8901734.985 10 0 59340 61200.00000 0 24439254.575 4473380.351 -5861168.499 10 0 59340 62100.00000 0 24994606.925 4463329.396 -2706984.491 10 0 59340 63000.00000 0 25163871.897 4338301.022 499638.507 10 0 59340 63900.00000 0 24933249.997 4151898.348 3696598.500 10 0 59340 64800.00000 0 24302110.379 3959589.208 6822063.879 10 0 59340 65700.00000 0 23283056.065 3816133.212 9815655.725 10 0 59340 66600.00000 0 21901458.530 3773048.662 12619596.711 10 0 59340 67500.00000 0 20194482.393 3876224.893 15179805.979 10 0 59340 68400.00000 0 18209641.447 4163779.064 17446920.724 10 0 59340 69300.00000 0 16002946.025 4664245.956 19377226.742 10 0 59340 70200.00000 0 13636717.819 5395175.474 20933482.141 10 0 59340 71100.00000 0 11177161.227 6362195.861 22085620.322 10 0 59340 72000.00000 0 8691789.883 7558581.720 22811320.285 10 0 59340 72900.00000 0 6246812.540 8965345.633 23096434.519 10 0 59340 73800.00000 0 3904583.965 10551851.141 22935266.816 10 0 59340 74700.00000 0 1721224.197 12276923.806 22330694.539 10 0 59340 75600.00000 0 -255497.227 14090416.944 21294132.227 10 0 59340 76500.00000 0 -1987925.658 15935169.976 19845335.691 10 0 59340 77400.00000 0 -3449861.650 17749280.917 18012048.401 10 0 59340 78300.00000 0 -4627421.375 19468601.050 15829494.498 10 0 59340 79200.00000 0 -5519380.512 21029349.868 13339725.593 10 0 59340 80100.00000 0 -6136985.941 22370742.265 10590831.428 10 0 59340 81000.00000 0 -6503241.623 23437518.324 7636027.393 10 0 59340 81900.00000 0 -6651697.132 24182268.949 4532634.714 10 0 59340 82800.00000 0 -6624788.550 24567457.967 1340972.098 10 0 59340 83700.00000 0 -6471801.004 24567053.268 -1876820.054 10 0 59340 84600.00000 0 -6246538.936 24167695.429 -5057999.605 10 0 59340 85500.00000 0 -6004803.460 23369351.487 -8140461.783 10 0 59341 0.00000 0 -5801785.205 22185423.544 -11063971.547 10 0 59341 900.00000 0 -5689485.753 20642304.804 -13771363.325 10 0 59341 1800.00000 0 -5714278.628 18778401.124 -16209681.481 10 0 59341 2700.00000 0 -5914718.033 16642656.905 -18331237.914 10 0 59341 3600.00000 0 -6319689.018 14292648.739 -20094563.363 10 0 59341 4500.00000 0 -6946981.294 11792326.928 -21465232.207 10 0 59341 5400.00000 0 -7802348.403 9209501.291 -22416543.510 10 0 59341 6300.00000 0 -8879093.445 6613178.170 -22930044.331 10 0 59341 7200.00000 0 -10158199.295 4070861.853 -22995885.019 10 0 59341 8100.00000 0 -11608997.640 1645934.611 -22613000.080 10 0 59341 9000.00000 0 -13190347.794 -604774.462 -21789112.061 10 0 59341 9900.00000 0 -14852274.365 -2633130.096 -20540559.727 10 0 59341 10800.00000 0 -16537993.346 -4401452.522 -18891955.511 10 0 59341 11700.00000 0 -18186239.908 -5883828.342 -16875680.662 10 0 59341 12600.00000 0 -19733798.660 -7066918.283 -14531229.780 10 0 59341 13500.00000 0 -21118129.116 -7950231.343 -11904419.247 10 0 59341 14400.00000 0 -22279975.610 -8545857.460 -9046476.572 10 0 59341 15300.00000 0 -23165852.185 -8877673.687 -6013029.797 10 0 59341 16200.00000 0 -23730298.849 -8980060.813 -2863017.705 10 0 59341 17100.00000 0 -23937815.816 -8896187.611 342457.341 10 0 59341 18000.00000 0 -23764396.262 -8675937.346 3541311.239 10 0 59341 18900.00000 0 -23198595.290 -8373565.582 6671671.981 10 0 59341 19800.00000 0 -22242092.284 -8045188.705 9673063.017 10 0 59341 20700.00000 0 -20909724.898 -7746208.873 12487554.237 10 0 59341 21600.00000 0 -19228994.541 -7528782.983 15060859.933 10 0 59341 22500.00000 0 -17239064.755 -7439440.803 17343364.348 10 0 59341 23400.00000 0 -14989294.160 -7516950.763 19291057.041 10 0 59341 24300.00000 0 -12537364.248 -7790521.408 20866362.149 10 0 59341 25200.00000 0 -9947078.204 -8278412.660 22038847.570 10 0 59341 26100.00000 0 -7285919.979 -8987014.330 22785802.026 10 0 59341 27000.00000 0 -4622472.189 -9910430.434 23092670.141 10 0 59341 27900.00000 0 -2023796.948 -11030587.595 22953337.802 10 0 59341 28800.00000 0 447114.512 -12317864.643 22370262.174 10 0 59341 29700.00000 0 2733720.223 -13732219.532 21354443.138 10 0 59341 30600.00000 0 4788037.140 -15224769.433 19925235.226 10 0 59341 31500.00000 0 6572395.565 -16739761.033 18110001.640 10 0 59341 32400.00000 0 8060765.826 -18216851.703 15943614.633 10 0 59341 33300.00000 0 9239601.563 -19593608.619 13467809.221 10 0 59341 34200.00000 0 10108163.357 -20808122.916 10730400.203 10 0 59341 35100.00000 0 10678307.776 -21801630.120 7784375.307 10 0 59341 36000.00000 0 10973749.086 -22521026.622 4686880.199 10 0 59341 36900.00000 0 11028823.176 -22921175.109 1498113.957 10 0 59341 37800.00000 0 10886804.709 -22966899.802 -1719843.951 10 0 59341 38700.00000 0 10597848.106 -22634584.611 -4904252.044 10 0 59341 39600.00000 0 10216639.644 -21913303.650 -7992945.590 10 0 59341 40500.00000 0 9799861.180 -20805433.249 -10925569.972 10 0 59341 41400.00000 0 9403574.720 -19326716.740 -13644782.428 10 0 59341 42300.00000 0 9080641.040 -17505777.013 -16097396.281 10 0 59341 43200.00000 0 8878284.457 -15383095.825 -18235442.991 10 0 59341 44100.00000 0 8835909.658 -13009502.101 -20017129.143 10 0 59341 45000.00000 0 8983265.574 -10444232.985 -21407667.889 10 0 59341 45900.00000 0 9339036.026 -7752649.813 -22379967.350 10 0 59341 46800.00000 0 9909918.141 -5003706.056 -22915161.923 10 0 59341 47700.00000 0 10690228.123 -2267274.781 -23002975.969 10 0 59341 48600.00000 0 11662050.879 388551.226 -22641913.310 10 0 59341 49500.00000 0 12795926.420 2900072.895 -21839269.761 10 0 59341 50400.00000 0 14052042.711 5210402.245 -20610969.809 10 0 59341 51300.00000 0 15381883.036 7271583.200 -18981232.215 10 0 59341 52200.00000 0 16730256.675 9046328.572 -16982072.809 10 0 59341 53100.00000 0 18037625.642 10509302.650 -14652656.033 10 0 59341 54000.00000 0 19242628.129 11647898.675 -12038509.598 10 0 59341 54900.00000 0 20284691.513 12462482.070 -9190619.170 10 0 59341 55800.00000 0 21106624.553 12966092.860 -6164422.176 10 0 59341 56700.00000 0 21657080.009 13183623.554 -3018721.367 10 0 59341 57600.00000 0 21892784.955 13150510.434 185460.022 10 0 59341 58500.00000 0 21780446.356 12910996.182 3386058.917 10 0 59341 59400.00000 0 21298253.585 12516039.096 6521166.108 10 0 59341 60300.00000 0 20436916.570 12020958.189 9530210.575 10 0 59341 61200.00000 0 19200197.799 11482913.664 12355112.495 10 0 59341 62100.00000 0 17604917.267 10958328.316 14941384.205 10 0 59341 63000.00000 0 15680430.912 10500357.155 17239159.691 10 0 59341 63900.00000 0 13467604.510 10156509.969 19204134.730 10 0 59341 64800.00000 0 11017325.072 9966524.823 20798401.676 10 0 59341 65700.00000 0 8388610.180 9960579.986 21991164.817 10 0 59341 66600.00000 0 5646391.724 10157917.884 22759324.153 10 0 59341 67500.00000 0 2859063.272 10565938.000 23087917.629 10 0 59341 68400.00000 0 95889.725 11179796.748 22970413.972 10 0 59341 69300.00000 0 -2575616.376 11982531.984 22408850.413 10 0 59341 70200.00000 0 -5092245.990 12945708.681 21413811.934 10 0 59341 71100.00000 0 -7397468.781 14030561.155 20004251.002 10 0 59341 72000.00000 0 -9443535.337 15189586.841 18207149.257 10 0 59341 72900.00000 0 -11193219.950 16368527.784 16057025.296 10 0 59341 73800.00000 0 -12621131.449 17508659.520 13595295.370 10 0 59341 74700.00000 0 -13714536.562 18549293.384 10869496.847 10 0 59341 75600.00000 0 -14473660.194 19430388.500 7932387.087 10 0 59341 76500.00000 0 -14911448.356 20095163.882 4840933.334 10 0 59341 77400.00000 0 -15052802.023 20492599.950 1655212.097 10 0 59341 78300.00000 0 -14933312.766 20579722.256 -1562761.078 10 0 59341 79200.00000 0 -14597552.545 20323568.565 -4750248.337 10 0 59341 80100.00000 0 -14096989.652 19702753.135 -7845027.915 10 0 59341 81000.00000 0 -13487619.512 18708558.835 -10786628.376 10 0 59341 81900.00000 0 -12827411.907 17345507.764 -13517532.519 10 0 59341 82800.00000 0 -12173684.701 15631383.481 -15984325.012 10 0 59341 83700.00000 0 -11580517.694 13596701.778 -18138759.011 10 0 59341 84600.00000 0 -11096318.677 11283650.858 -19938718.812 10 0 59341 85500.00000 0 -10761647.204 8744545.060 -21349057.862 10 0 59342 0.00000 0 -10607390.192 6039857.323 -22342294.546 10 0 59342 900.00000 0 -10653368.319 3235913.551 -22899151.493 10 0 59342 1800.00000 0 -10907431.819 402347.180 -23008927.624 10 0 59342 2700.00000 0 -11365085.682 -2390578.612 -22669696.242 10 0 59342 3600.00000 0 -12009657.300 -5074668.038 -21888326.255 10 0 59342 4500.00000 0 -12812999.450 -7586395.474 -20680327.309 10 0 59342 5400.00000 0 -13736696.496 -9869305.392 -19069523.555 10 0 59342 6300.00000 0 -14733721.022 -11876109.960 -17087564.128 10 0 59342 7200.00000 0 -15750468.908 -13570398.172 -14773281.723 10 0 59342 8100.00000 0 -16729085.194 -14927887.497 -12171913.542 10 0 59342 9000.00000 0 -17609981.202 -15937168.704 -9334201.385 10 0 59342 9900.00000 0 -18334435.937 -16599916.057 -6315389.894 10 0 59342 10800.00000 0 -18847171.819 -16930557.760 -3174143.523 10 0 59342 11700.00000 0 -19098796.639 -16955424.031 28595.986 10 0 59342 12600.00000 0 -19048009.807 -16711411.700 3230789.023 10 0 59342 13500.00000 0 -18663481.466 -16244224.071 6370491.700 10 0 59342 14400.00000 0 -17925327.040 -15606261.748 9387041.131 10 0 59342 15300.00000 0 -16826117.004 -14854254.001 12222210.415 10 0 59342 16200.00000 0 -15371380.881 -14046730.200 14821312.557 10 0 59342 17100.00000 0 -13579585.346 -13241436.683 17134233.829 10 0 59342 18000.00000 0 -11481587.667 -12492806.076 19116378.613 10 0 59342 18900.00000 0 -9119586.846 -11849583.331 20729509.634 10 0 59342 19800.00000 0 -6545614.817 -11352706.023 21942469.429 10 0 59342 20700.00000 0 -3819628.517 -11033525.896 22731770.794 10 0 59342 21600.00000 0 -1007279.342 -10912444.748 23082046.154 10 0 59342 22500.00000 0 1822550.566 -10998021.052 22986347.866 10 0 59342 23400.00000 0 4600346.224 -11286584.819 22446293.664 10 0 59342 24300.00000 0 7258587.381 -11762377.761 21472053.726 10 0 59342 25200.00000 0 9734299.545 -12398214.624 20082178.224 10 0 59342 26100.00000 0 11971424.610 -13156640.317 18303266.680 10 0 59342 27000.00000 0 13922913.932 -13991536.926 16169483.139 10 0 59342 27900.00000 0 15552457.176 -14850115.862 13721923.839 10 0 59342 28800.00000 0 16835774.370 -15675213.729 11007847.084 10 0 59342 29700.00000 0 17761416.087 -16407797.017 8079777.850 10 0 59342 30600.00000 0 18331036.659 -16989570.942 4994502.566 10 0 59342 31500.00000 0 18559127.054 -17365582.224 1811972.449 10 0 59342 32400.00000 0 18472216.969 -17486704.722 -1405863.840 10 0 59342 33300.00000 0 18107578.365 -17311900.782 -4596275.208 10 0 59342 34200.00000 0 17511484.353 -16810159.862 -7696986.037 10 0 59342 35100.00000 0 16737097.012 -15962029.211 -10647411.230 10 0 59342 36000.00000 0 15842074.153 -14760668.490 -13389862.201 10 0 59342 36900.00000 0 14885997.824 -13212380.641 -15870697.843 10 0 59342 37800.00000 0 13927735.359 -11336593.926 -18041395.685 10 0 59342 38700.00000 0 13022846.991 -9165293.885 -19859520.132 10 0 59342 39600.00000 0 12221152.056 -6741928.051 -21289567.027 10 0 59342 40500.00000 0 11564558.790 -4119829.096 -22303666.772 10 0 59342 41400.00000 0 11085251.032 -1360222.948 -22882131.542 10 0 59342 42300.00000 0 10804309.310 1470093.641 -23013835.735 10 0 59342 43200.00000 0 10730824.636 4301307.710 -22696422.684 10 0 59342 44100.00000 0 10861541.677 7063268.881 -21936334.485 10 0 59342 45000.00000 0 11181044.947 9688179.388 -20748665.656 10 0 59342 45900.00000 0 11662478.143 12113182.574 -19156845.088 10 0 59342 46800.00000 0 12268763.933 14282742.009 -17192154.202 10 0 59342 47700.00000 0 12954270.260 16150712.777 -14893092.585 10 0 59342 48600.00000 0 13666850.504 17682020.209 -12304605.213 10 0 59342 49500.00000 0 14350169.396 18853878.358 -9477187.957 10 0 59342 50400.00000 0 14946215.074 19656500.221 -6465890.287 10 0 59342 51300.00000 0 15397890.393 20093273.406 -3329235.682 10 0 59342 52200.00000 0 15651574.029 20180397.341 -128081.478 10 0 59342 53100.00000 0 15659543.858 19946000.501 3075559.239 10 0 59342 54000.00000 0 15382161.488 19428777.570 6219711.024 10 0 59342 54900.00000 0 14789727.374 18676205.863 9243622.204 10 0 59342 55800.00000 0 13863930.050 17742417.221 12088921.785 10 0 59342 56700.00000 0 12598830.056 16685815.113 14700726.272 10 0 59342 57600.00000 0 11001338.386 15566536.457 17028676.855 10 0 59342 58500.00000 0 9091170.014 14443863.377 19027888.923 10 0 59342 59400.00000 0 6900274.247 13373691.541 20659797.729 10 0 59342 60300.00000 0 4471764.639 12406158.985 21892885.933 10 0 59342 61200.00000 0 1858391.288 11583532.514 22703280.686 10 0 59342 62100.00000 0 -879383.502 10938438.216 23075210.081 10 0 59342 63000.00000 0 -3675629.370 10492508.692 23001310.885 10 0 59342 63900.00000 0 -6461421.989 10255502.947 22482781.638 10 0 59342 64800.00000 0 -9167447.863 10224935.878 21529377.510 10 0 59342 65700.00000 0 -11726634.861 10386233.857 20159245.634 10 0 59342 66600.00000 0 -14076701.693 10713411.565 18398602.140 10 0 59342 67500.00000 0 -16162522.200 11170243.891 16281254.744 10 0 59342 68400.00000 0 -17938206.908 11711886.085 13847977.467 10 0 59342 69300.00000 0 -19368814.962 12286876.392 11145747.006 10 0 59342 70200.00000 0 -20431624.053 12839438.733 8226853.162 10 0 59342 71100.00000 0 -21116903.676 13311989.564 5147898.623 10 0 59342 72000.00000 0 -21428157.275 13647743.383 1968706.317 10 0 59342 72900.00000 0 -21381821.126 13793306.112 -1248844.982 10 0 59342 73800.00000 0 -21006430.810 13701144.969 -4442033.914 10 0 59342 74700.00000 0 -20341289.085 13331827.859 -7548533.915 10 0 59342 75600.00000 0 -19434690.794 12655934.413 -10507649.034 10 0 59342 76500.00000 0 -18341779.925 11655554.410 -13261521.958 10 0 59342 77400.00000 0 -17122130.369 10325306.869 -15756288.271 10 0 59342 78300.00000 0 -15837154.238 8672833.737 -17943152.060 10 0 59342 79200.00000 0 -14547449.309 6718744.851 -19779359.710 10 0 59342 80100.00000 0 -13310199.925 4496014.832 -21229050.956 10 0 59342 81000.00000 0 -12176743.198 2048856.396 -22263969.312 10 0 59342 81900.00000 0 -11190404.957 -568882.738 -22864017.208 10 0 59342 82800.00000 0 -10384697.801 -3295731.483 -23017644.817 10 0 59342 83700.00000 0 -9781957.567 -6064930.321 -22722065.382 10 0 59342 84600.00000 0 -9392475.091 -8806990.701 -21983293.694 10 0 59342 85500.00000 0 -9214158.555 -11452370.670 -20816008.295 99